ATLAS 5 CENTAUR DEB, 44666

Orbit data source: Space-Track

ATLAS 5 CENTAUR DEB, 44666 is space debris in HEO originally from a launch on Wed, 17 Oct 2018 UTC launched from the Air Force Eastern Test Range (AFETR). Debris objects in space refer to the collection of defunct objects orbiting the Earth. Examples of debris include non-operational satellites, rocket bodies, and fragments generated from explosions, collisions, or faulty payload assembly.

Loading next visibility...
Identifier
44666, 2018-079AC
Orbit
HEO
Country
Flag of USUS
Related business
Flag of USUnited Launch Alliance/Lockheed Martin (US)
Manufacturer
ULA Decatur
Mission
Spacecraft
Bus & Motor
Unknown
Mass
Unknown
Launch date (UTC)
2018-10-17 (7 years ago)
Launch vehicle
Unknown
Launch site
Air Force Eastern Test Range (AFETR)
Object type
Payload
Rocket body
Debris
Shape & HBR
Unknown
Radar Cross Section
RCS unknown

Expand to show TLE details & history
Last TLE update: 2 days ago

TLE from 2 days ago
0 ATLAS 5 CENTAUR DEB
1 44666U 18079AC  25244.33078550 -.00000176  00000-0  00000-0 0  9994
2 44666  12.7330  56.4891 4441555 283.7690  31.8576  1.90656504 43519
Epoch: 2025-09-01T07:56Z
TLE epoch observation values (Epoch: 2025-09-01T07:56:19.867Z)
Latitude
-0.00007°
Longitude
-43.25863°
Altitude
13,555.033 km
Speed
5.048 km/s
True Right ascension
03h 46m 14s
True Declination
0° 00' 00"
Sunlit
Object was in daylight at epoch
Visualization orbit readout
Latitude
Unknown
Longitude
Unknown
Altitude
Unknown
Speed
Unknown
Apparent Right ascension
Unknown
Apparent Declination
Unknown
Sunlit
N/A
Visualization observer readout
Local Sidereal Time
04:07:23
Azimuth
Unknown
Elevation
Unknown
Doppler factor
Unknown
Orbital elements
Apogee altitude
33,299.669 km
Perigee altitude
8,893.55 km
Semi-major axis
27,474.746 km
Eccentricity
0.44416
Inclination
12.733°
RAAN
56.4891°
Arg. of periapsis
283.769°
True anomaly
76.1951°
Mean anomaly
31.8576°
Eccentric anomaly
51.87756°
Mean motion
0.47659 °/min
Orbital period
755.37 mins
BSTAR
0
Loading maneuver chart data...
Computing Atmospheric mass density...

Documentation

Showing up to 5 results
|